Miami, FL

1:15 PM EDT en Octubre 21, 2018 (GMT -0400)
Miami International

Tiempo Historia de KMIA - Octubre, 2018

Change the Weather History Date:

Jueves, Octubre 11, 2018

  Actual Average Record
Temperature  
Temperatura media 84 ° F 81 ° F  
Temperatura máxima 89 ° F 87 ° F 92 ° F (2009)
Temperatura mínima 79 ° F 75 ° F 57 ° F (1903)
Degree Days  
Grados día de calefacción 0 0  
Month to date heating degree days 0 0  
Since 1 July heating degree days 0 0  
Cooling Degree Days 19 16  
Month to date cooling degree days 199 181  
Year to date cooling degree days 3927 3793  
Growing Degree Days 34 (Base 50)    
Moisture  
Punto de rocío 77 ° F    
Average Humidity 83    
Maximum Humidity 94    
Minimum Humidity 72    
Precipitación  
Precipitación T pul 0.25 pul 9.00 pul (1909)
Month to date precipitation 1.23 2.93  
Year to date precipitation 56.57 53.19  
Nieve  
Nieve 0.00 pul - - ()
Month to date snowfall 0.0  
Since 1 July snowfall 0.0  
Since 1 September snowfall 0.0  
Grosos de nieve 0.00 pul    
Presión al nivel del mar  
Presión al nivel del mar 29.89 pul    
Viento  
Velocidad del viento 6 mph (SSO)    
Velocidad máxima del viento 15 mph    
Max Gust Speed 19 mph    
Visibilidad 10 Millas    
Eventos Lluvia , Tormenta    
T = Trace of Precipitation, MM = Missing Value Source: NWS Daily Summary

Daily Weather History Graph

Daily Weather History Graph

Search for Another Location

Airport or City:

Astronomía

Oct. 11, 2018 Salida Puesta
Hora real 7:17 AM EDT 6:57 PM EDT
Crepúsculo civil 6:54 AM EDT 7:20 PM EDT
Crepúsculo náutico 6:28 AM EDT 7:47 PM EDT
Crepúsculo astronómico 6:01 AM EDT 8:13 PM EDT
Luna 9:37 AM EDT (10/11) 9:05 PM EDT (10/11)
Horas de luz 12h 25m
Horas de luz
11h 39m
Creciente, 8% of the Moon is Illuminated
Oct 11
Creciente
Oct 16
Cuarto creciente
Oct 24
Luna llena
Oct 31
Cuarto menguante
Nov 7
Nueva

Hourly Weather History & Observations

Hora (EDT) Temp. Índice de calor Punto de rocío Humedad Presión Visibilidad Wind Dir Velocidad del viento Velocidad de ráfagas Precip Eventos Condiciones
12:53 AM 81.0 ° F 89.2 ° F 79.0 ° F 94% 29.90 pul 10.0 mi SSE 6.9 mph - N/A   Muy nublado
1:53 AM 81.0 ° F 89.2 ° F 79.0 ° F 94% 29.88 pul 10.0 mi Sur 5.8 mph - N/A   Muy nublado
2:53 AM 81.0 ° F 89.2 ° F 79.0 ° F 94% 29.88 pul 10.0 mi Sur 5.8 mph - N/A   Muy nublado
3:53 AM 80.1 ° F 86.7 ° F 79.0 ° F 96% 29.88 pul 10.0 mi Sur 5.8 mph - N/A   Muy nublado
4:53 AM 80.1 ° F 86.4 ° F 78.1 ° F 94% 29.88 pul 10.0 mi Sur 5.8 mph - N/A   Muy nublado
5:53 AM 80.1 ° F 85.8 ° F 77.0 ° F 90% 29.89 pul 10.0 mi Sur 6.9 mph - N/A   Muy nublado
6:53 AM 80.1 ° F 85.8 ° F 77.0 ° F 90% 29.91 pul 10.0 mi Sur 5.8 mph - N/A   Muy nublado
7:53 AM 80.1 ° F 86.4 ° F 78.1 ° F 94% 29.92 pul 10.0 mi Sur 4.6 mph - N/A   Muy nublado
8:53 AM 82.0 ° F 91.6 ° F 79.0 ° F 90% 29.92 pul 10.0 mi SO 5.8 mph - N/A   Muy nublado
9:53 AM 84.9 ° F 96.6 ° F 78.1 ° F 80% 29.93 pul 10.0 mi OSO 6.9 mph - N/A   Muy nublado
10:53 AM 86.0 ° F 96.9 ° F 77.0 ° F 74% 29.94 pul 10.0 mi SSO 8.1 mph - N/A   Muy nublado
11:53 AM 88.0 ° F 100.2 ° F 77.0 ° F 70% 29.93 pul 10.0 mi SSE 6.9 mph - N/A   Muy nublado
12:46 PM 84.9 ° F 96.6 ° F 78.1 ° F 80% 29.91 pul 9.0 mi SE 12.7 mph - 0.00 pul Lluvia Lluvia débil
12:53 PM 84.0 ° F 96.0 ° F 79.0 ° F 85% 29.91 pul 9.0 mi SSE 4.6 mph - 0.00 pul Lluvia Lluvia débil
1:11 PM 84.0 ° F 94.8 ° F 78.1 ° F 82% 29.91 pul 10.0 mi SSE 9.2 mph - 0.00 pul Lluvia , Tormenta Tormenta débil
1:51 PM 80.6 ° F 86.2 ° F 75.2 ° F 84% 29.90 pul 10.0 mi Sur 10.4 mph 17.3 mph 0.00 pul Lluvia Lluvia débil
1:53 PM 81.0 ° F 86.7 ° F 75.0 ° F 82% 29.91 pul 10.0 mi Sur 9.2 mph 17.3 mph 0.00 pul Lluvia Lluvia débil
2:40 PM 84.9 ° F 96.6 ° F 78.1 ° F 80% 29.88 pul 10.0 mi Sur 12.7 mph 18.4 mph 0.00 pul Tormenta Tormenta
2:53 PM 84.9 ° F 94.1 ° F 75.9 ° F 74% 29.88 pul 10.0 mi SSO 10.4 mph 17.3 mph 0.00 pul Tormenta Tormenta
3:16 PM 84.9 ° F 95.3 ° F 77.0 ° F 77% 29.87 pul 10.0 mi SSO 10.4 mph - N/A Tormenta Nublado
3:20 PM 84.0 ° F 93.7 ° F 77.0 ° F 79% 29.87 pul 10.0 mi SSO 11.5 mph - N/A Tormenta Tormenta
3:53 PM 82.9 ° F 89.4 ° F 73.9 ° F 74% 29.88 pul 10.0 mi Oeste 6.9 mph - N/A Tormenta Tormenta
4:45 PM 80.1 ° F 85.8 ° F 77.0 ° F 90% 29.87 pul 10.0 mi ONO 5.8 mph - N/A   Nublado
4:53 PM 81.0 ° F 87.9 ° F 77.0 ° F 88% 29.87 pul 10.0 mi ONO 5.8 mph - N/A   Nublado
5:53 PM 82.0 ° F 87.9 ° F 73.9 ° F 76% 29.85 pul 10.0 mi SSO 4.6 mph - 0.00 pul   Nublado
6:53 PM 82.0 ° F 88.6 ° F 75.0 ° F 79% 29.86 pul 10.0 mi SSO 5.8 mph - N/A   Nublado
7:53 PM 82.0 ° F 89.4 ° F 75.9 ° F 82% 29.87 pul 10.0 mi SSO 5.8 mph - N/A   Nublado
8:53 PM 81.0 ° F 88.6 ° F 78.1 ° F 91% 29.88 pul 10.0 mi Variable 5.8 mph - N/A   Nublado
9:53 PM 81.0 ° F 88.6 ° F 78.1 ° F 91% 29.90 pul 10.0 mi Sur 3.5 mph - N/A   Nublado
10:53 PM 80.1 ° F 86.4 ° F 78.1 ° F 94% 29.90 pul 10.0 mi Sur 3.5 mph - N/A   Nublado
11:53 PM 80.1 ° F 86.4 ° F 78.1 ° F 94% 29.90 pul 10.0 mi Sur 4.6 mph - N/A   Nublado